Home > Weather > Atlantic City > Past weeks

Flag for USA Past Weather in Atlantic City, New Jersey, USA — Yesterday and Last 2 Weeks

Now
83 °F

Passing clouds.


Feels Like: 85 °F
Forecast: 70 / 81 °F
Wind: 10 mph from South

Location: Atlantic City International Airport

Current Time: Aug 25, 2016 at 12:54:16 PM

Latest Report: Aug 25, 2016 at 11:54 AM


Visibility: 10 mi

Pressure: 30.11 "Hg

Humidity: 59%

Dew Point: 67 °F

Location of Atlantic CityLocation

Past Weather in Atlantic City — Graph

°F

Atlantic City Temperature Yesterday

Maximum temperature yesterday: 83 °F (at 1:54 PM)
Minimum temperature yesterday: 57 °F (at 4:54 AM)
Average temperature yesterday: 72 °F

High & Low Weather Summary for the Past Weeks

 TemperatureHumidityPressure
High98 °F (Aug 14, 1:54 PM)94% (Aug 20, 5:54 AM)30.34 "Hg (Aug 20, 5:54 AM)
Low55 °F (Aug 23, 5:54 AM)38% (Aug 22, 4:54 PM)29.81 "Hg (Aug 21, 2:54 PM)
Average79 °F68%30.06 "Hg
* Reported Aug 10 11:01 AM — Aug 25 10:54 AM, Atlantic City, Weather by CustomWeather, © 2016

Note: Actual official high and low records may vary slightly from our data, if they occured in-between our weather recording intervals... More about our weather records

Advertising

Atlantic City Weather History for the Previous 24 Hours

Scroll right to see more
 ConditionsComfort  
Time TempWeatherWind HumidityBarometerVisibility
10:54 AM
Thu, Aug 25
82 °FPassing clouds.13 mph55%30.13 "Hg10 mi
9:54 AM80 °FSunny.9 mph47%30.13 "Hg10 mi
8:54 AM76 °FSunny.8 mph60%30.14 "Hg10 mi
7:54 AM71 °FSunny.7 mph76%30.15 "Hg10 mi
6:54 AM63 °FClear.No wind90%30.15 "Hg10 mi
5:54 AM65 °FClear.3 mph87%30.15 "Hg10 mi
4:54 AM66 °FClear.5 mph84%30.15 "Hg10 mi
3:54 AM67 °FClear.5 mph81%30.15 "Hg10 mi
2:54 AM68 °FClear.3 mph83%30.16 "Hg10 mi
1:54 AM67 °FClear.5 mph87%30.17 "Hg10 mi
12:54 AM70 °FClear.No wind83%30.20 "Hg10 mi
11:54 PM
Wed, Aug 24
69 °FClear.5 mph84%30.20 "Hg10 mi
10:54 PM71 °FClear.3 mph76%30.20 "Hg10 mi
9:54 PM72 °FClear.7 mph71%30.21 "Hg10 mi
8:54 PM72 °FClear.6 mph68%30.21 "Hg10 mi
7:54 PM75 °FSunny.7 mph55%30.20 "Hg10 mi
6:54 PM78 °FSunny.7 mph54%30.20 "Hg10 mi
5:54 PM80 °FSunny.10 mph47%30.20 "Hg10 mi
4:58 PM82 °FSunny.13 mph45%30.21 "Hg10 mi
3:54 PM83 °FSunny.13 mph48%30.22 "Hg10 mi
2:54 PM83 °FPartly sunny.12 mph50%30.23 "Hg10 mi
1:54 PM83 °FScattered clouds.7 mph48%30.24 "Hg10 mi
12:54 PM82 °FPassing clouds.5 mph44%30.26 "Hg10 mi
Weather by CustomWeather, © 2016

See weather overviewHow to use our weather pages